Tributaries of Elbe river

river Ploučnice - water gauge Benešov nad Ploučnicí

Date and time (UTC) H (cm) Q (m³/s)
21. 10. 2021 00:40 71 4.2
21. 10. 2021 00:00 70 4
20. 10. 2021 23:00 69 4
20. 10. 2021 22:00 69 4
20. 10. 2021 21:00 72 4
20. 10. 2021 20:00 72 4
20. 10. 2021 19:00 70 4
20. 10. 2021 18:00 72 4
20. 10. 2021 17:00 70 4
20. 10. 2021 16:00 71 4
20. 10. 2021 15:00 71 4
20. 10. 2021 14:00 72 4
20. 10. 2021 13:00 72 4
20. 10. 2021 12:00 73 5

H - water level, Q - discharge

river Ohře - water gauge Louny

Date and time (UTC) H (cm) Q (m³/s)
21. 10. 2021 00:40 195 20.3
21. 10. 2021 00:00 193 19
20. 10. 2021 23:00 193 19
20. 10. 2021 22:00 193 19
20. 10. 2021 21:00 194 20
20. 10. 2021 20:00 191 18
20. 10. 2021 19:00 193 19
20. 10. 2021 18:00 193 19
20. 10. 2021 17:00 194 20
20. 10. 2021 16:00 194 20
20. 10. 2021 15:00 194 20
20. 10. 2021 14:00 194 20
20. 10. 2021 13:00 193 19
20. 10. 2021 12:00 193 19

H - water level, Q - discharge

Vraňany

Date and time (UTC) H (cm) Q (m³/s)
21. 10. 2021 00:40 56 105
21. 10. 2021 00:00 56 105
20. 10. 2021 23:00 48 95
20. 10. 2021 22:00 40 85
20. 10. 2021 21:00 39 84
20. 10. 2021 20:00 47 94
20. 10. 2021 19:00 45 91
20. 10. 2021 18:00 46 92
20. 10. 2021 17:00 55 104
20. 10. 2021 16:00 76 130
20. 10. 2021 15:00 77 131
20. 10. 2021 14:00 56 105
20. 10. 2021 13:00 53 101
20. 10. 2021 12:00 47 94

H - water level, Q - discharge

river Jizera - water gauge Předměřice

Date and time (UTC) H (cm) Q (m³/s)
21. 10. 2021 00:40 116 6.5
21. 10. 2021 00:00 122 8
20. 10. 2021 23:00 129 10
20. 10. 2021 22:00 136 12
20. 10. 2021 21:00 141 13
20. 10. 2021 20:00 130 10
20. 10. 2021 19:00 135 12
20. 10. 2021 18:00 130 10
20. 10. 2021 17:00 129 10
20. 10. 2021 16:00 133 11
20. 10. 2021 15:00 134 11
20. 10. 2021 14:00 128 10
20. 10. 2021 13:00 130 10
20. 10. 2021 12:00 123 8

H - water level, Q - discharge

river Cidlina - water gauge Sány

Date and time (UTC) H (cm) Q (m³/s)
21. 10. 2021 00:40 38 2
21. 10. 2021 00:00 38 2
20. 10. 2021 23:00 37 2
20. 10. 2021 22:00 37 2
20. 10. 2021 21:00 36 2
20. 10. 2021 20:00 36 2
20. 10. 2021 19:00 36 2
20. 10. 2021 18:00 36 2
20. 10. 2021 17:00 36 2
20. 10. 2021 16:00 36 2
20. 10. 2021 15:00 35 2
20. 10. 2021 14:00 35 2
20. 10. 2021 13:00 35 2
20. 10. 2021 12:00 34 2

H - water level, Q - discharge

river Orlice - water gauge Týniště nad Orlicí

Date and time (UTC) H (cm) Q (m³/s)
21. 10. 2021 00:20 58 7.1
21. 10. 2021 00:00 58 7
20. 10. 2021 23:00 61 8
20. 10. 2021 22:00 61 8
20. 10. 2021 21:00 61 8
20. 10. 2021 20:00 61 8
20. 10. 2021 19:00 60 7
20. 10. 2021 18:00 62 8
20. 10. 2021 17:00 64 8
20. 10. 2021 16:00 63 8
20. 10. 2021 15:00 60 7
20. 10. 2021 14:00 59 7
20. 10. 2021 13:00 60 7
20. 10. 2021 12:00 60 7

H - water level, Q - discharge
Source data
Labe Basin Vltava Basin Povodí Moravy ČHMÚ